Home   Weather   Santa Cruz   Past weeks

Flag for USA Past Weather in Santa Cruz, California, USA — Yesterday and Last 2 Weeks

Now
47 °F

Fog.


Feels Like: 46 °F
Forecast: 51 / 73 °F
Wind: 3 mph from Northwest

Location: Watsonville Municipal Airport

Current Time: Apr 30, 2017 at 6:13:12 am

Latest Report: Apr 30, 2017 at 4:53 am


Visibility: 5 mi

Pressure: 30.13 "Hg

Humidity: 93%

Dew Point: 45 °F

Location of Santa CruzLocation

Past Weather in Santa Cruz — Graph

°F

Santa Cruz Temperature Yesterday

Maximum temperature yesterday: 74 °F (at 3:53 pm)
Minimum temperature yesterday: 45 °F (at 3:53 am)
Average temperature yesterday: 58 °F

High & Low Weather Summary for the Past Weeks

 TemperatureHumidityPressure
High76 °F (Apr 28, 2:53 pm)100% (Apr 15, 4:53 am)30.30 "Hg (Apr 15, 4:53 am)
Low42 °F (Apr 15, 4:53 am)17% (Apr 28, 5:53 pm)29.94 "Hg (Apr 16, 4:53 am)
Average56 °F84%30.08 "Hg
* Reported Apr 15 4:53 am — Apr 30 4:53 am, Santa Cruz, Weather by CustomWeather, © 2017

Note: Actual official high and low records may vary slightly from our data, if they occured in-between our weather recording intervals... More about our weather records

Advertising

Santa Cruz Weather History for the Previous 24 Hours

Scroll right to see more
 ConditionsComfort  
Time TempWeatherWind HumidityBarometerVisibility
4:53 am
Sun, Apr 30
47 °FFog.3 mph93%30.13 "Hg5 mi
3:53 am47 °FFog.No wind93%30.13 "Hg4 mi
2:53 am48 °FFog.5 mph93%30.13 "Hg5 mi
1:53 am49 °FFog.No wind97%30.14 "Hg4 mi
12:53 am49 °FFog.No wind97%30.14 "Hg4 mi
11:53 pm
Sat, Apr 29
51 °FFog.3 mph96%30.14 "Hg4 mi
10:53 pm52 °FFog.No wind97%30.14 "Hg4 mi
9:53 pm53 °FFog.3 mph93%30.14 "Hg4 mi
8:53 pm54 °FFog.5 mph90%30.11 "Hg4 mi
7:53 pm56 °FSunny.6 mph84%30.09 "Hg4 mi
6:53 pm63 °FSunny.6 mph65%30.08 "Hg4 mi
5:53 pm68 °FSunny.6 mph57%30.07 "Hg5 mi
4:53 pm74 °FSunny.5 mph36%30.07 "Hg6 mi
3:53 pm74 °FSunny.8 mph29%30.08 "Hg6 mi
2:53 pm73 °FSunny.9 mph32%30.09 "Hg6 mi
1:53 pm73 °FSunny.9 mph34%30.10 "Hg6 mi
12:53 pm71 °FSunny.8 mph35%30.11 "Hg6 mi
11:53 am71 °FSunny.7 mph41%30.12 "Hg6 mi
10:53 am69 °FSunny.3 mph33%30.12 "Hg6 mi
9:53 am64 °FSunny.6 mph50%30.11 "Hg6 mi
8:53 am58 °FSunny.5 mph72%30.11 "Hg4 mi
7:53 am52 °FFog.No wind89%30.10 "Hg4 mi
6:53 am45 °FFog.3 mph93%30.07 "Hg3 mi
Weather by CustomWeather, © 2017

See weather overviewHow to use our weather pages